    Observer details:
    033 Karl Schwarzschild Observatory, Tautenburg.  Observers S. Melnikov, C.
        Hoegner, U. Laux, F. Ludwig, B. Stecklum.  Measurer B. Stecklum.  1.34-m
        f/3 Schmidt + CCD.
    204 Schiaparelli Observatory.  Observer L. Buzzi.  0.84-m f/3.5 reflector +
        CCD.
    246 Klet Observatory-KLENOT.  Observers M. Tichy, J. Ticha, M. Honkova.
        Measurers M. Tichy, M. Honkova.  1.06-m f/2.7 reflector +
        2048x2048 CCD.
    595 Farra d'Isonzo.  Observers G. Panterotto, E. Pettarin.  Measurer E.
        Pettarin.  0.40-m f/5.15 reflector + CCD.
    654 Table Mountain Observatory, Wrightwood-PHMC.  Observers P. Choi, N. Saini,
        C. Zhai, R. Trahan, M. Shao.
    703 Catalina Sky Survey.  Observer K. W. Wierzchos.  Measurers E. J.
        Christensen, G. A. Farneth, D. C. Fuls, A. R. Gibbs, A. D. Grauer, H.
        Groeller, R. A. Kowalski, S. M. Larson, G. J. Leonard, T. A. Pruyne, D.
        Rankin, R. L. Seaman, F. C. Shelly, K. W. Wierzchos.  0.68-m Schmidt + 10K
        CCD.
    858 Tebbutt Observatory, Edgewood.  Observer F. B. Zoltowski.  0.51-m Schmidt-
        Cassegrain + CCD.
    A17 Guidestar Observatory, Weinheim.  Observers M. Emmerich, S. Melchert.
        0.36-m f/6 Schmidt-Cassegrain + CCD.
    C47 Nonndorf.  Observer G. Dangl.  0.25-m f/4.8 reflector + CCD.
    H21 Astronomical Research Observatory, Westfield.  Observer R. Holmes.
        Measurers S. Foglia, L. Buzzi, T. Linder, R. Holmes.  0.76-m f/3.0
        astrograph + CCD.
    H36 Sandlot Observatory, Scranton.  Observer G. Hug.  0.56-m reflector + CCD.
    I52 Steward Observatory, Mt. Lemmon Station.  Observer R. A. Kowalski.
        Measurers E. J. Christensen, G. A. Farneth, D. C. Fuls, A. R. Gibbs, A. D.
        Grauer, H. Groeller, R. A. Kowalski, S. M. Larson, G. J. Leonard, T. A.
        Pruyne, D. Rankin, R. L. Seaman, F. C. Shelly, K. W. Wierzchos.  1.0-m
        reflector + CCD.
    J95 Great Shefford.  Observer P. Birtwhistle.  0.41-m f/6.3 Schmidt-Cassegrain
        + CCD.
    K61 Rokycany Observatory.  Observer M. Adamovsky.  0.51-m f/6.8 reflector +
        CCD.
    K62 Teplice Observatory.  Observer Z. Moravec.  0.43-m f/4.5 reflector + CCD.
    K63 G. Pascoli Observatory, Castelvecchio Pascoli.  Observer R. Bacci.  0.41-m
        f/3.2 Newtonian reflector + CCD.
    K74 Muensterschwarzach Observatory, Schwarzach.  Observer C. Gerhard.  0.30-m
        f/3.75 Newtonian reflector + CCD.
    K87 Dettelbach Vineyard Observatory.  Observer B. Haeusler.  0.3-m f/8.0
        Schmidt-Cassegrain + CCD.
    L01 Visnjan Observatory, Tican.  Observers K. Korlevic, D. Pujagic, V. Dobos.
        Measurers D. Pujagic, K. Korlevic.  1.0-m f/2.9 reflector + CCD.
    N88 Xingming Observatory #3, Nanshan.  Observer X. Gao.  Measurer Q.-Z. Ye.
        0.6-m f/8 Ritchey-Chretien + CCD.
    
    Orbital elements:
    2021 EL1                                                 Earth MOID = 0.0256 AU
    Epoch 2020 Dec. 17.0 TT = JDT 2459200.5                 Veres
    M 316.04867              (2000.0)            P               Q
    n   0.55824510     Peri.  170.13107     -0.95615319     -0.29212678
    a   1.4607843      Node   352.78118     +0.25614534     -0.79970268
    e   0.3039004      Incl.    9.53203     +0.14198815     -0.52453558
    P   1.77           H   24.1           G   0.15           U   6
    Residuals in seconds of arc
    210306 703  0.4+  0.2+    210306 204  0.3-  0.0     210307 H21  0.2-  0.3+
    210306 703  0.3-  0.1-    210306 204  0.1-  0.1+    210307 H21  0.0   0.3+
    210306 703  0.5-  0.3-    210306 K63  0.2-  0.2+    210307 H21  0.1-  0.4+
    210306 I52  0.0   0.3+    210306 A17  0.3+  0.2+    210307 654  0.0   0.2+
    210306 I52  0.1-  0.3-    210306 K63  0.9-  0.2+    210307 654  0.1-  0.2+
    210306 I52  0.5+  0.4+    210306 K63  0.9-  0.4-    210307 654  0.0   0.2+
    210306 I52  0.3-  0.6+    210306 A17  0.3+  0.2+    210307 033  0.0   0.0
    210306 L01  0.1-  0.2+    210306 A17  0.2+  0.0     210307 033  0.1+  0.0
    210306 L01  0.1-  0.2-    210306 N88  0.2+  0.3-    210307 033  0.0   0.2-
    210306 L01  0.5-  0.2+    210306 N88  0.2+  1.1-    210307 033  0.1+  0.1+
    210306 L01  0.1-  0.1-    210306 N88  0.5+  0.2+    210307 246  0.8+  0.0
    210306 L01  0.2-  0.2+    210306 N88  0.1+  0.4+    210307 246  0.1+  0.2-
    210306 595  0.1-  0.1-    210306 N88  0.2+  0.3+    210307 K62  1.1+  0.5-
    210306 595  0.4+  0.3-    210306 C47  0.1-  0.4-    210307 246  0.1-  0.8-
    210306 595  0.1+  0.3+    210306 C47  0.1+  0.2+    210307 246  0.1-  0.3-
    210306 K61  0.1-  0.8-    210306 C47  0.4+  0.4+    210307 246  0.2-  0.1-
    210306 K61  0.2+  0.7-    210307 I52  0.0   0.1+    210307 K62  0.0   0.1-
    210306 K61  0.0   0.7-    210307 I52  0.1-  0.1+    210307 K62  0.3+  0.2-
    210306 K61  0.0   0.4-    210307 I52  0.0   0.1+    210307 A17  0.1+  0.1+
    210306 246  0.2-  0.1-    210307 I52  0.0   0.1+    210307 K62  0.3-  0.0
    210306 246  0.2+  0.4-    210307 858  0.0   0.3+    210307 A17  0.0   0.1-
    210306 246  0.1+  0.2-    210307 033  0.2-  0.1+    210307 A17  0.1+  0.2+
    210306 246  0.3-  0.3+    210307 033  0.1-  0.2+    210307 K74  0.3-  0.3+
    210306 246  0.6-  0.1+    210307 033  0.1-  0.2+    210307 K74  0.2+  0.1+
    210306 033  0.0   0.1+    210307 H36  0.2+  0.6-    210307 J95  0.1+  0.1+
    210306 033  0.1-  0.1+    210307 858  0.0   0.4+    210307 J95  0.3-  0.2-
    210306 033  0.0   0.1+    210307 H36  0.3+  0.7+    210307 J95  0.3-  0.4+
    210306 K87  1.2+  0.8-    210307 858  0.0   0.5+    210307 J95  0.2+  0.2-
    210306 K87  1.0+  0.7-    210307 H36  0.2+  0.6-    210307 K74  0.4-  0.2+
    210306 K87  0.1+  0.1+    210307 H21  0.0   0.2+
    
    Ephemeris:
    2021 EL1                 a,e,i = 1.46, 0.30, 10                  q = 1.0169
    Date    TT    R. A. (2000) Decl.     Delta      r    Elong.  Phase     V
    2021 02 05    05 29 51.7 +75 42 29   0.1434  1.0515   113.5    59.3    22.1
    ...
    2021 02 20    06 16 30.5 +71 48 05   0.09543 1.0250   109.8    65.2    21.4
    ...
    2021 02 28    07 08 20.7 +65 25 03   0.06934 1.0183   111.8    64.6    20.6
    ...
    2021 03 06    07 53 35.0 +54 43 32   0.05111 1.0168   117.8    59.7    19.8
    2021 03 07    08 01 14.6 +52 01 42   0.04838 1.0169   119.4    58.2    19.7
    2021 03 08    08 08 52.8 +48 58 14   0.04578 1.0171   121.3    56.5    19.5
    ...
    2021 03 14    08 53 11.9 +21 25 25   0.03505 1.0198   136.3    42.3    18.5
    ...
    2021 03 22    09 45 04.1 -23 05 43   0.04154 1.0282   139.3    39.2    18.8
    ...
    2021 04 06    10 56 15.6 -51 53 19   0.08885 1.0575   127.9    48.3    20.8
    
    M. P. C. Staff               (C) Copyright 2021 MPC           M.P.E.C. 2021-E53
    


    Read MPEC 2021-E52 Read MPEC 2021-E54


    MPEC number:

    Enter an MPEC number in one of the following forms:

    • 1997-B01 (the full form)
    • J97B01 (the packed version of the full form)
    • B01 (the abbreviated form)